GRMLN EGTB-EGGD

Flight info

Callsign GRMLN
Flight time 0h 52m
Altitude 4500
Route EGTB CPT DCT VP133 DCT VP128 DCT EGGD
Aircraft P28A/L-SFG/C

Departure

Time 2026-05-05 20:47
Airport Wycombe Air Park (EGTB)

Arrival

Time 2026-05-05 21:40
Airport Bristol Airport (EGGD)
Time Latitude Longitude Altitude Speed Heading
2026-05-05 20:38 51.61150 -0.80129 514 ft 0 kts 273°
2026-05-05 20:40 51.61150 -0.80131 514 ft 2 kts 273°
2026-05-05 20:40 51.61153 -0.80152 517 ft 3 kts 326°
2026-05-05 20:40 51.61179 -0.80159 517 ft 5 kts 270°
2026-05-05 20:41 51.61217 -0.80196 517 ft 9 kts 342°
2026-05-05 20:41 51.61271 -0.80222 520 ft 6 kts 345°
2026-05-05 20:41 51.61295 -0.80221 519 ft 6 kts 55°
2026-05-05 20:41 51.61320 -0.80230 520 ft 1 kts 20°
2026-05-05 20:42 51.61320 -0.80229 520 ft 0 kts 49°
2026-05-05 20:43 51.61321 -0.80228 520 ft 2 kts 38°
2026-05-05 20:44 51.61328 -0.80232 521 ft 2 kts 297°
2026-05-05 20:44 51.61330 -0.80240 521 ft 0 kts 292°
2026-05-05 20:44 51.61336 -0.80255 522 ft 7 kts 305°
2026-05-05 20:44 51.61323 -0.80356 524 ft 11 kts 247°
2026-05-05 20:45 51.61216 -0.80709 528 ft 22 kts 238°
2026-05-05 20:45 51.61140 -0.80923 530 ft 23 kts 242°
2026-05-05 20:45 51.61069 -0.81143 529 ft 20 kts 245°
2026-05-05 20:46 51.61035 -0.81276 529 ft 5 kts 253°
2026-05-05 20:46 51.61023 -0.81287 528 ft 3 kts 91°
2026-05-05 20:46 51.61024 -0.81284 528 ft 0 kts 64°
2026-05-05 20:46 51.61079 -0.81116 528 ft 47 kts 62°
2026-05-05 20:47 51.61293 -0.80454 673 ft 74 kts 60°
2026-05-05 20:47 51.61615 -0.79805 953 ft 78 kts 38°
2026-05-05 20:47 51.62152 -0.79546 1185 ft 86 kts 11°
2026-05-05 20:47 51.62765 -0.79421 1424 ft 92 kts 10°
2026-05-05 20:48 51.63422 -0.79595 1615 ft 100 kts 346°
2026-05-05 20:48 51.64049 -0.80075 1836 ft 106 kts 328°
2026-05-05 20:48 51.64286 -0.81252 1891 ft 124 kts 261°
2026-05-05 20:48 51.63822 -0.82403 1925 ft 120 kts 221°
2026-05-05 20:49 51.63205 -0.83225 1923 ft 115 kts 215°
2026-05-05 20:49 51.62557 -0.83960 1888 ft 115 kts 211°
2026-05-05 20:49 51.61908 -0.84694 1882 ft 114 kts 219°
2026-05-05 20:49 51.61391 -0.85641 1867 ft 112 kts 233°
2026-05-05 20:50 51.60949 -0.86688 1850 ft 114 kts 239°
2026-05-05 20:50 51.60535 -0.87772 1844 ft 111 kts 239°
2026-05-05 20:50 51.60131 -0.88830 1870 ft 112 kts 237°
2026-05-05 20:50 51.59714 -0.89810 1884 ft 113 kts 234°
2026-05-05 20:51 51.59238 -0.90802 1891 ft 113 kts 230°
2026-05-05 20:51 51.58721 -0.91736 1896 ft 115 kts 232°
2026-05-05 20:51 51.58242 -0.92809 1880 ft 123 kts 231°
2026-05-05 20:51 51.57759 -0.93950 1932 ft 123 kts 233°
2026-05-05 20:52 51.57268 -0.95065 1991 ft 125 kts 220°
2026-05-05 20:52 51.57006 -0.96373 1918 ft 126 kts 271°
2026-05-05 20:52 51.56844 -0.97741 1905 ft 122 kts 261°
2026-05-05 20:52 51.56605 -0.99035 1866 ft 120 kts 255°
2026-05-05 20:53 51.56257 -1.00246 1828 ft 120 kts 248°
2026-05-05 20:53 51.55872 -1.01412 1789 ft 121 kts 243°
2026-05-05 20:53 51.55455 -1.02565 1796 ft 119 kts 244°
2026-05-05 20:53 51.55051 -1.03715 1783 ft 117 kts 244°
2026-05-05 20:54 51.54651 -1.04869 1738 ft 119 kts 245°
2026-05-05 20:54 51.54260 -1.06004 1770 ft 113 kts 244°
2026-05-05 20:54 51.53858 -1.07125 1748 ft 116 kts 242°
2026-05-05 20:54 51.53416 -1.08190 1803 ft 121 kts 236°
2026-05-05 20:55 51.52937 -1.09353 1945 ft 119 kts 242°
2026-05-05 20:55 51.52572 -1.10485 2221 ft 111 kts 249°
2026-05-05 20:55 51.52257 -1.11587 2487 ft 108 kts 250°
2026-05-05 20:55 51.51958 -1.12692 2695 ft 109 kts 252°
2026-05-05 20:56 51.51673 -1.13796 2967 ft 106 kts 251°
2026-05-05 20:56 51.51393 -1.14902 3204 ft 107 kts 254°
2026-05-05 20:56 51.51146 -1.16038 3420 ft 109 kts 256°
2026-05-05 20:56 51.50863 -1.17171 3647 ft 110 kts 252°
2026-05-05 20:57 51.50530 -1.18704 3929 ft 110 kts 257°
2026-05-05 20:57 51.50378 -1.19495 4068 ft 110 kts 256°
2026-05-05 20:57 51.50151 -1.20738 4103 ft 119 kts 257°
2026-05-05 20:57 51.49928 -1.21965 4098 ft 114 kts 257°
2026-05-05 20:58 51.49690 -1.23185 4051 ft 115 kts 255°
2026-05-05 20:58 51.49423 -1.24394 4029 ft 116 kts 253°
2026-05-05 20:58 51.49144 -1.25605 4090 ft 117 kts 256°
2026-05-05 20:58 51.49096 -1.26857 4286 ft 111 kts 276°
2026-05-05 20:59 51.49120 -1.28092 4474 ft 110 kts 277°
2026-05-05 20:59 51.49140 -1.29346 4505 ft 111 kts 274°
2026-05-05 20:59 51.49104 -1.30564 4505 ft 108 kts 273°
2026-05-05 20:59 51.49120 -1.31767 4488 ft 106 kts 278°
2026-05-05 21:00 51.49130 -1.32924 4487 ft 105 kts 273°
2026-05-05 21:00 51.49123 -1.34095 4486 ft 105 kts 275°
2026-05-05 21:00 51.49113 -1.35268 4488 ft 105 kts 275°
2026-05-05 21:00 51.49105 -1.36435 4489 ft 104 kts 274°
2026-05-05 21:01 51.49076 -1.37596 4491 ft 105 kts 269°
2026-05-05 21:01 51.49007 -1.38764 4490 ft 105 kts 270°
2026-05-05 21:01 51.48941 -1.39930 4490 ft 105 kts 269°
2026-05-05 21:01 51.48876 -1.41094 4487 ft 105 kts 269°
2026-05-05 21:02 51.48813 -1.42244 4491 ft 105 kts 269°
2026-05-05 21:02 51.48794 -1.43408 4490 ft 104 kts 275°
2026-05-05 21:02 51.48768 -1.44575 4490 ft 105 kts 273°
2026-05-05 21:02 51.48766 -1.45751 4491 ft 106 kts 276°
2026-05-05 21:03 51.48770 -1.46930 4490 ft 106 kts 275°
2026-05-05 21:03 51.48759 -1.48106 4502 ft 106 kts 275°
2026-05-05 21:03 51.48752 -1.49300 4507 ft 109 kts 274°
2026-05-05 21:03 51.48746 -1.50527 4504 ft 110 kts 275°
2026-05-05 21:04 51.48741 -1.51755 4507 ft 109 kts 275°
2026-05-05 21:04 51.48735 -1.52955 4506 ft 109 kts 274°
2026-05-05 21:04 51.48720 -1.54165 4508 ft 108 kts 274°
2026-05-05 21:04 51.48706 -1.55368 4507 ft 108 kts 274°
2026-05-05 21:05 51.48688 -1.56565 4506 ft 107 kts 274°
2026-05-05 21:05 51.48671 -1.57752 4505 ft 106 kts 274°
2026-05-05 21:05 51.48653 -1.58942 4507 ft 108 kts 274°
2026-05-05 21:05 51.48637 -1.60155 4508 ft 109 kts 273°
2026-05-05 21:06 51.48667 -1.61365 4506 ft 108 kts 279°
2026-05-05 21:06 51.48687 -1.62553 4511 ft 109 kts 276°
2026-05-05 21:06 51.48694 -1.63792 4514 ft 112 kts 274°
2026-05-05 21:06 51.48683 -1.65051 4513 ft 113 kts 274°
2026-05-05 21:07 51.48675 -1.66294 4508 ft 110 kts 274°
2026-05-05 21:07 51.48664 -1.67510 4508 ft 108 kts 274°
2026-05-05 21:07 51.48652 -1.68722 4506 ft 109 kts 274°
2026-05-05 21:07 51.48638 -1.69933 4503 ft 108 kts 274°
2026-05-05 21:08 51.48625 -1.71136 4502 ft 107 kts 274°
2026-05-05 21:08 51.48613 -1.72315 4502 ft 107 kts 274°
2026-05-05 21:08 51.48599 -1.73511 4504 ft 108 kts 274°
2026-05-05 21:08 51.48587 -1.74712 4505 ft 108 kts 274°
2026-05-05 21:09 51.48574 -1.75919 4505 ft 109 kts 274°
2026-05-05 21:09 51.48560 -1.77140 4507 ft 110 kts 274°
2026-05-05 21:09 51.48548 -1.78369 4511 ft 111 kts 274°
2026-05-05 21:09 51.48526 -1.79608 4511 ft 111 kts 272°
2026-05-05 21:10 51.48521 -1.80843 4510 ft 110 kts 274°
2026-05-05 21:10 51.48508 -1.82056 4512 ft 110 kts 274°
2026-05-05 21:10 51.48494 -1.83286 4513 ft 110 kts 274°
2026-05-05 21:10 51.48481 -1.84511 4511 ft 109 kts 274°
2026-05-05 21:11 51.48467 -1.85732 4507 ft 109 kts 274°
2026-05-05 21:11 51.48454 -1.86943 4506 ft 109 kts 274°
2026-05-05 21:11 51.48439 -1.88146 4508 ft 107 kts 274°
2026-05-05 21:11 51.48426 -1.89344 4506 ft 107 kts 274°
2026-05-05 21:12 51.48415 -1.90537 4506 ft 107 kts 274°
2026-05-05 21:12 51.48401 -1.91714 4505 ft 107 kts 274°
2026-05-05 21:12 51.48390 -1.92900 4504 ft 106 kts 271°
2026-05-05 21:12 51.48378 -1.94089 4509 ft 107 kts 271°
2026-05-05 21:13 51.48363 -1.95285 4510 ft 108 kts 271°
2026-05-05 21:13 51.48351 -1.96483 4508 ft 107 kts 272°
2026-05-05 21:13 51.48336 -1.97676 4505 ft 106 kts 271°
2026-05-05 21:13 51.48323 -1.98863 4508 ft 107 kts 271°
2026-05-05 21:14 51.48312 -2.00057 4509 ft 107 kts 272°
2026-05-05 21:14 51.48296 -2.01250 4507 ft 107 kts 272°
2026-05-05 21:14 51.48285 -2.02431 4507 ft 108 kts 272°
2026-05-05 21:14 51.48272 -2.03628 4508 ft 107 kts 272°
2026-05-05 21:15 51.48257 -2.04826 4514 ft 107 kts 271°
2026-05-05 21:15 51.48245 -2.06025 4517 ft 108 kts 271°
2026-05-05 21:15 51.48233 -2.07246 4523 ft 111 kts 272°
2026-05-05 21:15 51.48222 -2.08492 4524 ft 112 kts 271°
2026-05-05 21:16 51.48206 -2.09733 4519 ft 110 kts 271°
2026-05-05 21:16 51.48190 -2.10960 4520 ft 110 kts 271°
2026-05-05 21:16 51.48181 -2.12176 4525 ft 111 kts 271°
2026-05-05 21:16 51.48164 -2.13418 4522 ft 111 kts 271°
2026-05-05 21:17 51.48154 -2.14654 4523 ft 110 kts 272°
2026-05-05 21:17 51.48137 -2.15880 4523 ft 110 kts 272°
2026-05-05 21:17 51.48124 -2.17107 4524 ft 110 kts 272°
2026-05-05 21:17 51.48109 -2.18332 4524 ft 110 kts 272°
2026-05-05 21:18 51.48098 -2.19557 4521 ft 110 kts 272°
2026-05-05 21:18 51.48084 -2.20788 4522 ft 111 kts 272°
2026-05-05 21:18 51.48072 -2.22032 4522 ft 112 kts 271°
2026-05-05 21:18 51.48057 -2.23262 4522 ft 112 kts 272°
2026-05-05 21:19 51.47996 -2.24514 4512 ft 113 kts 260°
2026-05-05 21:19 51.47841 -2.25747 4518 ft 113 kts 262°
2026-05-05 21:19 51.47700 -2.26984 4517 ft 113 kts 261°
2026-05-05 21:19 51.47555 -2.28209 4519 ft 112 kts 262°
2026-05-05 21:20 51.47412 -2.29439 4477 ft 115 kts 261°
2026-05-05 21:20 51.47268 -2.30703 4320 ft 116 kts 261°
2026-05-05 21:20 51.47114 -2.31977 4165 ft 116 kts 261°
2026-05-05 21:20 51.46955 -2.33220 4028 ft 115 kts 261°
2026-05-05 21:21 51.46790 -2.34492 3859 ft 117 kts 261°
2026-05-05 21:21 51.46626 -2.35771 3714 ft 117 kts 261°
2026-05-05 21:21 51.46454 -2.37053 3569 ft 117 kts 261°
2026-05-05 21:21 51.46280 -2.38321 3456 ft 116 kts 261°
2026-05-05 21:22 51.46113 -2.39583 3299 ft 115 kts 261°
2026-05-05 21:22 51.45941 -2.40833 3110 ft 115 kts 261°
2026-05-05 21:22 51.45771 -2.42061 2965 ft 111 kts 261°
2026-05-05 21:22 51.45644 -2.43247 2799 ft 110 kts 268°
2026-05-05 21:23 51.45540 -2.44455 2703 ft 109 kts 267°
2026-05-05 21:23 51.45428 -2.45659 2566 ft 110 kts 267°
2026-05-05 21:23 51.45308 -2.46852 2497 ft 106 kts 267°
2026-05-05 21:23 51.45188 -2.48032 2371 ft 110 kts 267°
2026-05-05 21:24 51.45075 -2.49218 2341 ft 104 kts 270°
2026-05-05 21:24 51.44995 -2.50395 2165 ft 107 kts 282°
2026-05-05 21:24 51.45085 -2.51534 2123 ft 102 kts 282°
2026-05-05 21:24 51.45104 -2.52707 1975 ft 107 kts 280°
2026-05-05 21:25 51.45114 -2.53875 1859 ft 107 kts 281°
2026-05-05 21:25 51.45128 -2.55063 1788 ft 105 kts 280°
2026-05-05 21:25 51.45134 -2.56241 1684 ft 108 kts 279°
2026-05-05 21:25 51.45168 -2.57427 1618 ft 106 kts 283°
2026-05-05 21:26 51.45229 -2.58615 1516 ft 108 kts 282°
2026-05-05 21:26 51.45278 -2.59817 1399 ft 109 kts 282°
2026-05-05 21:26 51.45329 -2.60971 1389 ft 98 kts 282°
2026-05-05 21:26 51.45372 -2.62027 1392 ft 93 kts 278°
2026-05-05 21:27 51.45401 -2.63044 1397 ft 90 kts 285°
2026-05-05 21:27 51.45384 -2.64052 1389 ft 97 kts 258°
2026-05-05 21:27 51.45155 -2.65071 1391 ft 97 kts 260°
2026-05-05 21:27 51.44936 -2.66095 1396 ft 99 kts 261°
2026-05-05 21:28 51.44716 -2.67177 1395 ft 103 kts 256°
2026-05-05 21:28 51.44496 -2.68242 1396 ft 100 kts 259°
2026-05-05 21:28 51.44257 -2.69276 1396 ft 98 kts 258°
2026-05-05 21:28 51.43962 -2.70285 1393 ft 102 kts 248°
2026-05-05 21:29 51.43655 -2.71296 1394 ft 100 kts 251°
2026-05-05 21:29 51.43366 -2.72292 1394 ft 96 kts 249°
2026-05-05 21:29 51.43084 -2.73263 1397 ft 99 kts 250°
2026-05-05 21:29 51.42538 -2.73990 1392 ft 103 kts 216°
2026-05-05 21:30 51.41950 -2.74637 1394 ft 102 kts 216°
2026-05-05 21:30 51.41364 -2.75286 1392 ft 103 kts 214°
2026-05-05 21:30 51.40782 -2.75930 1395 ft 101 kts 216°
2026-05-05 21:30 51.40188 -2.76539 1338 ft 102 kts 214°
2026-05-05 21:31 51.39573 -2.77092 1229 ft 105 kts 213°
2026-05-05 21:31 51.38948 -2.77613 1151 ft 101 kts 197°
2026-05-05 21:31 51.38321 -2.77364 1096 ft 91 kts 131°
2026-05-05 21:31 51.38080 -2.76480 1023 ft 87 kts 89°
2026-05-05 21:32 51.38087 -2.75603 936 ft 74 kts 77°
2026-05-05 21:32 51.38145 -2.74830 836 ft 67 kts 85°
2026-05-05 21:32 51.38145 -2.74119 775 ft 65 kts 74°
2026-05-05 21:32 51.38211 -2.73380 712 ft 75 kts 71°
2026-05-05 21:33 51.38245 -2.72471 840 ft 87 kts 82°
2026-05-05 21:33 51.38265 -2.71497 1083 ft 87 kts 82°
2026-05-05 21:33 51.38247 -2.70547 1303 ft 91 kts 99°
2026-05-05 21:33 51.37907 -2.69628 1433 ft 105 kts 123°
2026-05-05 21:34 51.37302 -2.68956 1430 ft 112 kts 155°
2026-05-05 21:34 51.36524 -2.68955 1389 ft 116 kts 199°
2026-05-05 21:34 51.35889 -2.69721 1339 ft 112 kts 233°
2026-05-05 21:34 51.35462 -2.70727 1378 ft 108 kts 248°
2026-05-05 21:35 51.35252 -2.71861 1332 ft 105 kts 267°
2026-05-05 21:35 51.35176 -2.72990 1339 ft 103 kts 272°
2026-05-05 21:35 51.35142 -2.74123 1357 ft 98 kts 272°
2026-05-05 21:35 51.35054 -2.75186 1413 ft 98 kts 270°
2026-05-05 21:36 51.34965 -2.76313 1431 ft 105 kts 268°
2026-05-05 21:36 51.34817 -2.77473 1443 ft 108 kts 266°
2026-05-05 21:36 51.34740 -2.78609 1399 ft 97 kts 286°
2026-05-05 21:36 51.35111 -2.79376 1339 ft 86 kts 336°
2026-05-05 21:37 51.35675 -2.79532 1279 ft 81 kts
2026-05-05 21:37 51.36256 -2.79521 1226 ft 82 kts
2026-05-05 21:37 51.36818 -2.79518 1180 ft 80 kts
2026-05-05 21:37 51.37345 -2.79469 1171 ft 77 kts
2026-05-05 21:38 51.37865 -2.79306 1111 ft 76 kts 20°
2026-05-05 21:38 51.38150 -2.78621 1099 ft 84 kts 81°
2026-05-05 21:38 51.38052 -2.77693 1020 ft 82 kts 87°
2026-05-05 21:38 51.38076 -2.76809 953 ft 76 kts 78°
2026-05-05 21:39 51.38115 -2.75967 934 ft 77 kts 82°
2026-05-05 21:39 51.38131 -2.75150 870 ft 67 kts 75°
2026-05-05 21:39 51.38206 -2.74449 764 ft 70 kts 89°
2026-05-05 21:39 51.38191 -2.73635 725 ft 69 kts 70°
2026-05-05 21:40 51.38230 -2.72974 638 ft 50 kts 75°
2026-05-05 21:40 51.38253 -2.72516 623 ft 37 kts 91°
2026-05-05 21:40 51.38258 -2.72190 615 ft 24 kts 85°
2026-05-05 21:40 51.38267 -2.71970 613 ft 21 kts 84°
2026-05-05 21:41 51.38275 -2.71718 603 ft 22 kts 86°
2026-05-05 21:41 51.38281 -2.71495 598 ft 17 kts 92°
2026-05-05 21:41 51.38269 -2.71399 596 ft 8 kts 113°
2026-05-05 21:41 51.38209 -2.71330 594 ft 12 kts 147°
2026-05-05 21:42 51.38148 -2.71269 594 ft 6 kts 146°
2026-05-05 21:42 51.38133 -2.71215 595 ft 7 kts 83°
2026-05-05 21:42 51.38132 -2.71111 597 ft 11 kts 111°
2026-05-05 21:42 51.38087 -2.71016 599 ft 12 kts 105°
2026-05-05 21:43 51.38047 -2.70954 601 ft 10 kts 200°
2026-05-05 21:43 51.37968 -2.71002 603 ft 15 kts 213°
2026-05-05 21:43 51.37958 -2.71106 608 ft 6 kts 323°
2026-05-05 21:43 51.37967 -2.71093 603 ft 0 kts 181°